Regional Weather Roundup
Issued by NWS

Home | Current Version | Previous Version | Graphics & Text | Print | Product List | Glossary On
Versions: 1 2 3 4 5 6 7 8 9 10 11 12 13 14 15 16 17 18 19 20 21 22 23 24 25 26
000
ASUS45 KPSR 262110
RWRAZ

ARIZONA HOURLY REGIONAL WEATHER ROUNDUP
NATIONAL WEATHER SERVICE PHOENIX AZ
200 PM MST THU MAY 26 2016

NOTE: FAIR INDICATES FEW OR NO CLOUDS BELOW 12,000 FEET WITH NO
SIGNIFICANT WEATHER AND/OR OBSTRUCTIONS TO VISIBILITY.

AZZ001>003-036-262200-
NORTHWEST ARIZONA

CITY           SKY/WX    TMP DP  RH WIND       PRES   REMARKS
BULLHEAD CITY  SUNNY     86  30  13 SW9       29.87F
KINGMAN        PTSUNNY   76  28  17 SW12G20   29.96F
$$

AZZ004>008-015-016-018-262200-
NORTH CENTRAL ARIZONA

CITY           SKY/WX    TMP DP  RH WIND       PRES   REMARKS
GRAND CANYON   PTSUNNY   57  28  33 W10G20    30.06R
WILLIAMS       PTSUNNY   63  23  22 W15       30.12F
PRESCOTT       PTSUNNY   67  24  19 SW13G18   30.00F
FLAGSTAFF      CLOUDY    57  23  26 SW12G22   30.05S
PAYSON         MOSUNNY   66  23  19 W8G17     30.03S
PAGE           PTSUNNY   73  30  20 W16G29    29.92S
$$

AZZ009>014-017-262200-
NORTHEAST ARIZONA

CITY           SKY/WX    TMP DP  RH WIND       PRES   REMARKS
WINSLOW        MOSUNNY   73  25  16 W12G25    29.95F
SAINT JOHNS    MOSUNNY   65  15  14 W17G26    29.97F
WINDOW ROCK    PTSUNNY   62  21  20 SW13G24   29.99F
SHOW LOW       MOSUNNY   57  16  19 SW7G20    30.04F
$$

AZZ023-262200-
GREATER PHOENIX AREA

CITY           SKY/WX    TMP DP  RH WIND       PRES   REMARKS
PHOENIX        MOSUNNY   81  31  16 N13G18    29.88F
BUCKEYE        SUNNY     82  32  16 S7        29.90F
GLENDALE       MOSUNNY   82  34  17 S10G18    29.90F
LUKE AFB       SUNNY     82  35  18 S15G21    29.86F
DEER VALLEY    SUNNY     80  33  18 NW8       29.89F
SCOTTSDALE     SUNNY     80  32  17 W5        29.91F
MESA-GATEWAY   MOSUNNY   79  34  19 SW12G17   29.91F
CHANDLER       MOSUNNY   82  30  15 W7        29.90F
$$

AZZ027-028-262200-
SOUTHWEST MARICOPA COUNTY AND PINAL COUNTY

CITY           SKY/WX    TMP DP  RH WIND       PRES   REMARKS
CASA GRANDE    SUNNY     81  30  16 S5        29.92F
GILA BEND      SUNNY     83  27  12 N7        29.89F
$$

AZZ503-504-507>509-262200-
SOUTHEAST ARIZONA

CITY           SKY/WX    TMP DP  RH WIND       PRES   REMARKS
TUCSON         SUNNY     78  21  12 VRB6      29.95F
DAVIS-MONTHAN  SUNNY     78  20  11 NW14      29.93F
RYAN FIELD     SUNNY     81  23  12 SW9       29.94F
NOGALES        SUNNY     78  12   8 SW12G23   29.98F
SIERRA VISTA   SUNNY     76  10   8 VRB7G23   29.99F
DOUGLAS        SUNNY     80   7   6 W14G32    29.94F
SAFFORD        SUNNY     78  21  12 MISG      29.90F
$$

AZZ020-021-025-026-031-262200-
SOUTHWEST ARIZONA

CITY           SKY/WX    TMP DP  RH WIND       PRES   REMARKS
YUMA           SUNNY     85  39  19 VRB7      29.88F
$$

CAZ031-033-041-043-047-048-061-262200-
SOUTHERN CALIFORNIA

CITY           SKY/WX    TMP DP  RH WIND       PRES   REMARKS
DOWNTOWN L.A.  SUNNY     71  53  52 VRB3      30.02F
L.A. AIRPORT   MOSUNNY   68  52  56 W14       30.03F
SAN DIEGO      PTSUNNY   67  53  61 VRB3      30.06F
BURBANK        SUNNY     71  51  49 S7        30.01F
ONTARIO        MOSUNNY   73  48  41 SW10G20   30.01F
RIVERSIDE      SUNNY     76  48  37 W12G17    30.00F
EL CENTRO NAS  MOSUNNY   87  35  15 CALM      29.89F
IMPERIAL       SUNNY     86  37  17 VRB3      29.87F
BLYTHE         SUNNY     86  39  19 VRB3      29.86F
NEEDLES        SUNNY     88  31  13 E7        29.86F
$$

NVZ020-UTZ003-262200-
SOUTHERN NEVADA-UTAH

CITY           SKY/WX    TMP DP  RH WIND       PRES   REMARKS
LAS VEGAS      MOSUNNY   81  31  16 NW10G21   29.87F
SALT LAKE CITY MOSUNNY   69  33  26 NW13      29.96S
$$

NMZ009-TXZ055-262200-
NEW MEXICO-WEST TEXAS

CITY           SKY/WX    TMP DP  RH WIND       PRES   REMARKS
ALBUQUERQUE    PTSUNNY   71  13  10 W13G22    29.87F
EL PASO        MOSUNNY   85  17   8 W28G33    29.85F BLWGDUST
$$


........................KEY........................
SKY/WX - SKY CONDITION/WEATHER
TMP    - TEMPERATURE IN FAHRENHEIT
DP     - DEW POINT IN FAHRENHEIT
RH     - RELATIVE HUMIDITY IN PERCENT
WIND   - DIRECTION AND SPEED IN MILES PER HOUR (MPH)
VRB    - VARIABLE WIND DIRECTION
PRES   - MEAN SEA LEVEL PRESSURE IN INCHES OF MERCURY
         F - FALLING PRESSURE   R - RISING PRESSURE
         S - STEADY PRESSURE
VSB    - VISIBILITY IN MILES
HX     - HEAT INDEX IN FAHRENHEIT
WCI    - WIND CHILL INDEX IN FAHRENHEIT
TC     - TEMPERATURE IN CELSIUS WHICH IS ALSO KNOWN AS
         TEMPERATURE IN CENTIGRADE
AFB    - AIR FORCE BASE
         LUKE AFB IS LUKE AIR FORCE BASE
         DAVIS-MONTHAN IS DAVIS-MONTHAN AIR FORCE BASE
NAS    - NAVAL AIR STATION
         EL CENTRO NAS IS EL CENTRO NAVAL AIR STATION
N/A    - NOT AVAILABLE





USA.gov is the U.S. government's official web portal to all federal, state and local government web resources and services.